| time (UTC) | temp C | wind direction | speed KPH | gust KPH | rain 1hr cm | rain 24hr cm | rain mn cm | humidity % | barometer mb |
| 20260507080317 | 17 | 294 | 6.4 | 9.7 | 0.00 | 0.71 | 0.00 | 89 | 1010.6 |
| 20260507075819 | 16 | 264 | 9.7 | 16.1 | 0.00 | 0.71 | 0.00 | 90 | 1010.7 |
| 20260507075320 | 15 | 272 | 8.0 | 20.9 | 0.00 | 0.71 | 0.00 | 90 | 1010.7 |
| 20260507074822 | 15 | 253 | 8.0 | 12.9 | 0.00 | 0.71 | 0.00 | 90 | 1010.7 |
| 20260507074323 | 14 | 254 | 6.4 | 14.5 | 0.00 | 0.71 | 0.00 | 90 | 1010.7 |
| 20260507073825 | 14 | 248 | 8.0 | 20.9 | 0.00 | 0.71 | 0.00 | 90 | 1010.6 |
| 20260507073326 | 14 | 264 | 8.0 | 16.1 | 0.00 | 0.71 | 0.00 | 90 | 1010.6 |
| 20260507072828 | 14 | 281 | 6.4 | 11.3 | 0.00 | 0.71 | 0.00 | 90 | 1010.6 |
| 20260507072329 | 14 | 280 | 8.0 | 16.1 | 0.00 | 0.71 | 0.00 | 90 | 1010.5 |
| 20260507071831 | 15 | 249 | 6.4 | 11.3 | 0.00 | 0.71 | 0.00 | 90 | 1010.5 |
| 20260507071332 | 15 | 257 | 4.8 | 8.0 | 0.00 | 0.71 | 0.00 | 91 | 1010.4 |
| 20260507070834 | 15 | 300 | 4.8 | 11.3 | 0.00 | 0.71 | 0.00 | 91 | 1010.3 |
| 20260507070335 | 15 | 294 | 3.2 | 9.7 | 0.00 | 0.71 | 0.00 | 92 | 1010.2 |
| 20260507065837 | 15 | 269 | 6.4 | 11.3 | 0.00 | 0.71 | 0.00 | 92 | 1010.2 |
| 20260507065338 | 15 | 250 | 4.8 | 9.7 | 0.00 | 0.71 | 0.00 | 92 | 1010.2 |
| 20260507064840 | 15 | 260 | 6.4 | 16.1 | 0.00 | 0.71 | 0.00 | 92 | 1010.1 |
| 20260507064341 | 14 | 268 | 6.4 | 11.3 | 0.00 | 0.71 | 0.00 | 93 | 1010.1 |
| 20260507063843 | 14 | 259 | 4.8 | 11.3 | 0.00 | 0.71 | 0.00 | 93 | 1010.1 |
| 20260507063344 | 14 | 265 | 6.4 | 11.3 | 0.00 | 0.71 | 0.00 | 93 | 1010.1 |
| 20260507062845 | 13 | 234 | 3.2 | 6.4 | 0.00 | 0.71 | 0.00 | 93 | 1010.0 |
| 20260507062347 | 13 | 261 | 4.8 | 9.7 | 0.00 | 0.71 | 0.00 | 93 | 1010.0 |
| 20260507061848 | 13 | 253 | 3.2 | 9.7 | 0.00 | 0.71 | 0.00 | 93 | 1009.9 |
| 20260507061350 | 12 | 265 | 4.8 | 8.0 | 0.00 | 0.71 | 0.00 | 93 | 1009.9 |
| 20260507060851 | 12 | 266 | 4.8 | 11.3 | 0.00 | 0.71 | 0.00 | 93 | 1009.8 |
| 20260507060353 | 12 | 230 | 1.6 | 3.2 | 0.00 | 0.71 | 0.00 | 93 | 1009.7 |
| 20260507055854 | 12 | 259 | 4.8 | 11.3 | 0.00 | 0.71 | 0.00 | 93 | 1009.7 |
| 20260507055355 | 12 | 251 | 4.8 | 8.0 | 0.00 | 0.71 | 0.00 | 93 | 1009.7 |
| 20260507054857 | 12 | 265 | 4.8 | 8.0 | 0.00 | 0.71 | 0.00 | 93 | 1009.6 |
| 20260507054358 | 12 | 242 | 3.2 | 8.0 | 0.00 | 0.71 | 0.00 | 93 | 1009.6 |
| 20260507053900 | 12 | 250 | 4.8 | 9.7 | 0.00 | 0.71 | 0.00 | 93 | 1009.6 |
| 20260507053401 | 12 | 259 | 6.4 | 12.9 | 0.00 | 0.71 | 0.00 | 93 | 1009.4 |
| 20260507052903 | 11 | 262 | 4.8 | 9.7 | 0.00 | 0.71 | 0.00 | 93 | 1009.4 |
| 20260507052404 | 11 | 255 | 3.2 | 6.4 | 0.00 | 0.71 | 0.00 | 93 | 1009.4 |
| 20260507051906 | 11 | 250 | 4.8 | 11.3 | 0.00 | 0.71 | 0.00 | 93 | 1009.5 |
| 20260507051407 | 11 | 252 | 3.2 | 8.0 | 0.00 | 0.71 | 0.00 | 93 | 1009.4 |
| 20260507050909 | 11 | 243 | 4.8 | 9.7 | 0.00 | 0.71 | 0.00 | 93 | 1009.3 |
| 20260507050410 | 11 | 251 | 3.2 | 9.7 | 0.00 | 0.71 | 0.00 | 93 | 1009.3 |
| 20260507045912 | 11 | 242 | 1.6 | 4.8 | 0.00 | 0.71 | 0.00 | 93 | 1009.3 |
| 20260507045413 | 11 | 257 | 3.2 | 8.0 | 0.00 | 0.71 | 0.00 | 93 | 1009.2 |
| 20260507044914 | 10 | 240 | 3.2 | 4.8 | 0.00 | 0.71 | 0.00 | 93 | 1009.1 |
| 20260507044416 | 10 | 242 | 1.6 | 4.8 | 0.00 | 0.71 | 0.00 | 92 | 1008.9 |
| 20260507043917 | 10 | 233 | 1.6 | 4.8 | 0.00 | 0.71 | 0.00 | 92 | 1008.9 |
| 20260507043419 | 10 | 261 | 1.6 | 4.8 | 0.00 | 0.71 | 0.00 | 91 | 1008.9 |
| 20260507042920 | 10 | 216 | 1.6 | 4.8 | 0.00 | 0.71 | 0.00 | 91 | 1008.9 |
| 20260507042422 | 10 | 232 | 0.0 | 3.2 | 0.00 | 0.71 | 0.00 | 91 | 1008.8 |
| 20260507041924 | 10 | 209 | 0.0 | 4.8 | 0.00 | 0.71 | 0.00 | 91 | 1008.6 |
| 20260507041425 | 10 | 197 | 0.0 | 1.6 | 0.00 | 0.71 | 0.00 | 90 | 1008.6 |
| 20260507040927 | 10 | 220 | 1.6 | 6.4 | 0.00 | 0.71 | 0.00 | 90 | 1008.6 |
| 20260507040428 | 10 | 211 | 1.6 | 3.2 | 0.00 | 0.71 | 0.00 | 90 | 1008.6 |
| 20260507035929 | 10 | 224 | 1.6 | 4.8 | 0.00 | 0.71 | 0.00 | 91 | 1008.6 |
| 20260507035430 | 10 | 242 | 3.2 | 4.8 | 0.00 | 0.71 | 0.00 | 90 | 1008.4 |
| 20260507034932 | 10 | 255 | 1.6 | 4.8 | 0.00 | 0.71 | 0.00 | 90 | 1008.4 |
| 20260507034433 | 10 | 240 | 1.6 | 6.4 | 0.00 | 0.71 | 0.00 | 90 | 1008.4 |
| 20260507033935 | 10 | 244 | 1.6 | 4.8 | 0.00 | 0.71 | 0.00 | 90 | 1008.5 |
| 20260507033436 | 10 | 241 | 3.2 | 4.8 | 0.00 | 0.71 | 0.00 | 90 | 1008.4 |
| 20260507032938 | 10 | 232 | 3.2 | 8.0 | 0.00 | 0.71 | 0.00 | 90 | 1008.4 |
| 20260507032439 | 10 | 230 | 3.2 | 6.4 | 0.00 | 0.71 | 0.00 | 90 | 1008.4 |
| 20260507031941 | 10 | 253 | 3.2 | 6.4 | 0.00 | 0.71 | 0.00 | 90 | 1008.4 |
| 20260507031442 | 10 | 250 | 3.2 | 6.4 | 0.00 | 0.71 | 0.00 | 90 | 1008.4 |
| 20260507030944 | 10 | 250 | 1.6 | 6.4 | 0.00 | 0.71 | 0.00 | 90 | 1008.3 |
| 20260507030445 | 10 | 241 | 3.2 | 6.4 | 0.00 | 0.71 | 0.00 | 90 | 1008.3 |
| 20260507025947 | 10 | 237 | 3.2 | 8.0 | 0.00 | 0.71 | 0.00 | 90 | 1008.3 |
| 20260507025448 | 10 | 242 | 1.6 | 4.8 | 0.00 | 0.71 | 0.00 | 90 | 1008.1 |
| 20260507024950 | 10 | 232 | 1.6 | 4.8 | 0.00 | 0.71 | 0.00 | 89 | 1008.1 |
| 20260507024451 | 10 | 254 | 1.6 | 3.2 | 0.00 | 0.71 | 0.00 | 89 | 1008.1 |
| 20260507023952 | 10 | 230 | 1.6 | 6.4 | 0.00 | 0.71 | 0.00 | 89 | 1008.1 |
| 20260507023454 | 10 | 237 | 1.6 | 4.8 | 0.00 | 0.71 | 0.00 | 89 | 1008.1 |
| 20260507022955 | 11 | 258 | 1.6 | 3.2 | 0.00 | 0.71 | 0.00 | 89 | 1008.1 |
| 20260507022457 | 11 | 232 | 0.0 | 3.2 | 0.00 | 0.71 | 0.00 | 89 | 1008.0 |
| 20260507021958 | 11 | 261 | 1.6 | 4.8 | 0.00 | 0.71 | 0.00 | 90 | 1008.0 |
| 20260507021500 | 11 | 262 | 1.6 | 4.8 | 0.00 | 0.71 | 0.00 | 90 | 1008.0 |
| 20260507021001 | 11 | 248 | 1.6 | 11.3 | 0.00 | 0.71 | 0.00 | 90 | 1008.0 |
| 20260507020503 | 11 | 264 | 3.2 | 6.4 | 0.00 | 0.71 | 0.00 | 90 | 1008.0 |
| 20260507020004 | 11 | 279 | 4.8 | 11.3 | 0.00 | 0.71 | 0.00 | 90 | 1007.9 |
| 20260507015506 | 11 | 250 | 4.8 | 8.0 | 0.00 | 0.71 | 0.00 | 90 | 1007.9 |
| 20260507015007 | 11 | 257 | 3.2 | 9.7 | 0.00 | 0.71 | 0.00 | 90 | 1007.8 |
| 20260507014509 | 11 | 244 | 4.8 | 11.3 | 0.00 | 0.71 | 0.00 | 90 | 1007.7 |
| 20260507014011 | 11 | 259 | 1.6 | 4.8 | 0.00 | 0.71 | 0.00 | 90 | 1007.7 |
| 20260507013512 | 11 | 246 | 3.2 | 11.3 | 0.00 | 0.71 | 0.00 | 90 | 1007.7 |
| 20260507013013 | 11 | 242 | 3.2 | 8.0 | 0.00 | 0.71 | 0.00 | 90 | 1007.6 |
| 20260507012515 | 11 | 239 | 1.6 | 4.8 | 0.00 | 0.71 | 0.00 | 89 | 1007.6 |
| 20260507012016 | 11 | 230 | 1.6 | 4.8 | 0.00 | 0.71 | 0.00 | 89 | 1007.5 |
| 20260507011518 | 11 | 242 | 1.6 | 3.2 | 0.00 | 0.71 | 0.00 | 90 | 1007.5 |
| 20260507011019 | 11 | 235 | 0.0 | 3.2 | 0.00 | 0.71 | 0.00 | 90 | 1007.4 |
| 20260507010520 | 12 | 229 | 0.0 | 3.2 | 0.00 | 0.71 | 0.00 | 89 | 1007.4 |
| 20260507010022 | 12 | 227 | 1.6 | 8.0 | 0.00 | 0.71 | 0.00 | 89 | 1007.4 |
| 20260507005523 | 12 | 240 | 3.2 | 8.0 | 0.00 | 0.71 | 0.00 | 89 | 1007.3 |
| 20260507005025 | 12 | 220 | 1.6 | 4.8 | 0.00 | 0.71 | 0.00 | 90 | 1007.2 |
| 20260507004526 | 12 | 236 | 1.6 | 4.8 | 0.00 | 0.71 | 0.00 | 90 | 1007.2 |
| 20260507004028 | 12 | 251 | 3.2 | 8.0 | 0.00 | 0.71 | 0.00 | 90 | 1007.1 |
| 20260507003529 | 12 | 278 | 3.2 | 9.7 | 0.00 | 0.71 | 0.00 | 90 | 1007.1 |
| 20260507003030 | 12 | 253 | 3.2 | 11.3 | 0.00 | 0.71 | 0.00 | 90 | 1007.1 |
| 20260507002532 | 12 | 254 | 4.8 | 9.7 | 0.00 | 0.71 | 0.00 | 90 | 1007.0 |
| 20260507002033 | 12 | 262 | 3.2 | 6.4 | 0.00 | 0.71 | 0.00 | 90 | 1007.0 |
| 20260507001535 | 12 | 224 | 1.6 | 3.2 | 0.00 | 0.71 | 0.00 | 90 | 1006.9 |
| 20260507001036 | 12 | 223 | 1.6 | 3.2 | 0.00 | 0.71 | 0.00 | 89 | 1007.0 |
| 20260507000538 | 12 | 225 | 1.6 | 6.4 | 0.00 | 0.71 | 0.00 | 89 | 1006.8 |
| 20260507000039 | 12 | 249 | 0.0 | 1.6 | 0.00 | 0.71 | 0.00 | 89 | 1006.7 |
| 20260506235541 | 12 | 204 | 0.0 | 0.0 | 0.00 | 0.71 | 0.00 | 89 | 1006.5 |
| 20260506235042 | 12 | 180 | 0.0 | 0.0 | 0.00 | 0.71 | 0.00 | 89 | 1006.5 |
| 20260506234544 | 13 | 260 | 1.6 | 3.2 | 0.00 | 0.71 | 0.00 | 89 | 1006.6 |
| 20260506234045 | 13 | 210 | 0.0 | 3.2 | 0.00 | 0.71 | 0.00 | 90 | 1006.6 |
| 20260506233547 | 13 | 246 | 1.6 | 3.2 | 0.00 | 0.71 | 0.00 | 90 | 1006.7 |
| 20260506233048 | 13 | 250 | 3.2 | 4.8 | 0.00 | 0.76 | 0.00 | 90 | 1006.7 |
| 20260506232550 | 13 | 133 | 0.0 | 1.6 | 0.00 | 0.76 | 0.00 | 89 | 1006.7 |
| 20260506232051 | 13 | 264 | 0.0 | 3.2 | 0.00 | 0.76 | 0.00 | 89 | 1006.7 |
| 20260506231553 | 13 | 197 | 0.0 | 0.0 | 0.00 | 0.76 | 0.00 | 89 | 1006.6 |
| 20260506231054 | 13 | 223 | 1.6 | 4.8 | 0.00 | 0.76 | 0.00 | 89 | 1006.6 |
| 20260506230556 | 13 | 80 | 0.0 | 1.6 | 0.00 | 0.81 | 0.00 | 89 | 1006.6 |
| 20260506230057 | 13 | 251 | 0.0 | 3.2 | 0.00 | 0.81 | 0.00 | 89 | 1006.5 |
| 20260506225558 | 13 | 244 | 1.6 | 6.4 | 0.00 | 0.81 | 0.00 | 89 | 1006.7 |
| 20260506225100 | 13 | 223 | 0.0 | 3.2 | 0.00 | 0.81 | 0.00 | 89 | 1006.7 |
| 20260506224601 | 13 | 259 | 1.6 | 4.8 | 0.00 | 0.81 | 0.00 | 89 | 1006.7 |
| 20260506224103 | 13 | 227 | 0.0 | 1.6 | 0.00 | 0.81 | 0.00 | 89 | 1006.6 |
| 20260506223604 | 13 | 258 | 1.6 | 6.4 | 0.00 | 0.81 | 0.00 | 88 | 1006.6 |
| 20260506223106 | 13 | 274 | 0.0 | 1.6 | 0.00 | 0.81 | 0.00 | 88 | 1006.6 |
| 20260506222607 | 13 | 256 | 0.0 | 3.2 | 0.00 | 0.81 | 0.00 | 88 | 1006.5 |
| 20260506222109 | 13 | 267 | 0.0 | 3.2 | 0.00 | 0.81 | 0.00 | 88 | 1006.5 |
| 20260506221606 | 13 | 227 | 0.0 | 0.0 | 0.05 | 0.81 | 0.00 | 88 | 1006.4 |
| 20260506221102 | 13 | 120 | 0.0 | 1.6 | 0.10 | 0.81 | 0.00 | 88 | 1006.2 |
| 20260506220559 | 13 | 93 | 0.0 | 1.6 | 0.15 | 0.81 | 0.00 | 88 | 1006.2 |
| 20260506220056 | 13 | 121 | 0.0 | 3.2 | 0.20 | 0.81 | 0.00 | 88 | 1006.2 |
| 20260506215552 | 13 | 91 | 1.6 | 4.8 | 0.20 | 0.86 | 0.00 | 88 | 1006.3 |
| 20260506215049 | 13 | 113 | 3.2 | 4.8 | 0.20 | 0.91 | 0.00 | 88 | 1006.3 |
| 20260506214546 | 13 | 100 | 1.6 | 4.8 | 0.20 | 0.91 | 0.00 | 87 | 1006.3 |
| 20260506214042 | 13 | 94 | 1.6 | 4.8 | 0.25 | 0.91 | 0.00 | 87 | 1006.3 |
| 20260506213539 | 13 | 93 | 3.2 | 8.0 | 0.25 | 0.97 | 0.00 | 87 | 1006.3 |
| 20260506213036 | 13 | 112 | 1.6 | 3.2 | 0.30 | 0.97 | 0.00 | 87 | 1006.5 |
| 20260506212532 | 13 | 138 | 0.0 | 1.6 | 0.46 | 0.97 | 0.00 | 87 | 1006.5 |
| 20260506212029 | 13 | 190 | 0.0 | 3.2 | 0.51 | 0.97 | 0.00 | 87 | 1006.6 |
| 20260506211525 | 13 | 106 | 0.0 | 3.2 | 0.46 | 0.91 | 0.00 | 87 | 1006.4 |
| 20260506211021 | 13 | 144 | 0.0 | 3.2 | 0.46 | 0.86 | 0.00 | 87 | 1006.4 |
| 20260506210517 | 13 | 188 | 0.0 | 1.6 | 0.41 | 0.86 | 0.00 | 87 | 1006.5 |
| 20260506210013 | 13 | 207 | 1.6 | 9.7 | 0.36 | 0.81 | 0.00 | 87 | 1006.6 |
| 20260506205509 | 13 | 229 | 3.2 | 8.0 | 0.36 | 0.86 | 0.00 | 86 | 1006.7 |
| 20260506205006 | 13 | 231 | 1.6 | 4.8 | 0.36 | 0.91 | 0.00 | 86 | 1006.7 |
| 20260506204503 | 13 | 222 | 1.6 | 8.0 | 0.36 | 0.91 | 0.00 | 86 | 1006.7 |
| 20260506203959 | 13 | 245 | 1.6 | 6.4 | 0.30 | 0.86 | 0.00 | 86 | 1006.6 |
| 20260506203456 | 13 | 258 | 0.0 | 3.2 | 0.30 | 0.86 | 0.00 | 86 | 1006.6 |
| 20260506202951 | 14 | 231 | 1.6 | 4.8 | 0.25 | 0.81 | 0.00 | 86 | 1006.5 |
| 20260506202446 | 14 | 227 | 3.2 | 4.8 | 0.10 | 0.71 | 0.00 | 86 | 1006.4 |
| 20260506201941 | 14 | 218 | 1.6 | 1.6 | 0.05 | 0.66 | 0.00 | 86 | 1006.1 |
| 20260506201438 | 14 | 161 | 1.6 | 1.6 | 0.05 | 0.66 | 0.00 | 85 | 1005.6 |
| 20260506200944 | 14 | 70 | 1.6 | 4.8 | 0.00 | 0.61 | 0.00 | 85 | 1005.2 |
| 20260506200446 | 14 | 198 | 1.6 | 4.8 | 0.00 | 0.61 | 0.00 | 85 | 1005.5 |
| 20260506195947 | 14 | 245 | 1.6 | 3.2 | 0.00 | 0.61 | 0.00 | 85 | 1005.5 |
| 20260506195449 | 14 | 223 | 3.2 | 4.8 | 0.00 | 0.61 | 0.00 | 85 | 1005.2 |
| 20260506194950 | 14 | 90 | 0.0 | 0.0 | 0.00 | 0.61 | 0.00 | 85 | 1005.1 |
| 20260506194452 | 14 | 232 | 1.6 | 4.8 | 0.00 | 0.61 | 0.00 | 85 | 1005.2 |
| 20260506193953 | 14 | 76 | 1.6 | 4.8 | 0.00 | 0.61 | 0.00 | 85 | 1005.2 |
| 20260506193454 | 14 | 260 | 0.0 | 1.6 | 0.00 | 0.61 | 0.00 | 84 | 1005.0 |
| 20260506192956 | 14 | 96 | 0.0 | 1.6 | 0.00 | 0.61 | 0.00 | 84 | 1004.9 |
| 20260506192457 | 14 | 86 | 1.6 | 3.2 | 0.00 | 0.61 | 0.00 | 84 | 1005.0 |
| 20260506191959 | 14 | 61 | 1.6 | 4.8 | 0.00 | 0.61 | 0.00 | 84 | 1005.0 |
| 20260506191500 | 14 | 69 | 1.6 | 4.8 | 0.00 | 0.61 | 0.00 | 84 | 1005.1 |
| 20260506191002 | 14 | 342 | 3.2 | 8.0 | 0.00 | 0.61 | 0.00 | 84 | 1005.5 |
| 20260506190503 | 14 | 187 | 1.6 | 4.8 | 0.00 | 0.61 | 0.00 | 84 | 1005.2 |
| 20260506190006 | 14 | 118 | 0.0 | 0.0 | 0.00 | 0.61 | 0.00 | 83 | 1004.9 |
| 20260506185506 | 14 | 90 | 0.0 | 0.0 | 0.00 | 0.61 | 0.00 | 83 | 1004.8 |
| 20260506185008 | 14 | 75 | 1.6 | 6.4 | 0.00 | 0.61 | 0.00 | 83 | 1004.7 |
| 20260506184509 | 14 | 96 | 1.6 | 8.0 | 0.00 | 0.61 | 0.00 | 83 | 1004.7 |
| 20260506184011 | 14 | 100 | 0.0 | 1.6 | 0.00 | 0.61 | 0.00 | 83 | 1004.6 |
| 20260506183512 | 14 | 99 | 0.0 | 4.8 | 0.00 | 0.61 | 0.00 | 83 | 1004.4 |
| 20260506183014 | 15 | 104 | 1.6 | 4.8 | 0.00 | 0.61 | 0.00 | 82 | 1004.2 |
| 20260506182515 | 15 | 117 | 3.2 | 11.3 | 0.00 | 0.61 | 0.00 | 82 | 1004.0 |
| 20260506182016 | 15 | 114 | 3.2 | 6.4 | 0.00 | 0.61 | 0.00 | 82 | 1003.9 |
| 20260506181518 | 15 | 108 | 3.2 | 4.8 | 0.00 | 0.61 | 0.00 | 82 | 1003.8 |
| 20260506181019 | 15 | 119 | 3.2 | 4.8 | 0.00 | 0.61 | 0.00 | 82 | 1003.8 |
| 20260506180521 | 15 | 116 | 3.2 | 6.4 | 0.00 | 0.61 | 0.00 | 82 | 1003.8 |
| 20260506180022 | 15 | 96 | 3.2 | 4.8 | 0.00 | 0.61 | 0.00 | 82 | 1003.8 |
| 20260506175524 | 15 | 124 | 1.6 | 3.2 | 0.00 | 0.61 | 0.00 | 82 | 1003.8 |
| 20260506175025 | 15 | 133 | 3.2 | 6.4 | 0.00 | 0.61 | 0.00 | 82 | 1003.8 |
| 20260506174527 | 15 | 130 | 1.6 | 3.2 | 0.00 | 0.61 | 0.00 | 82 | 1003.8 |
| 20260506174028 | 15 | 122 | 0.0 | 3.2 | 0.00 | 0.61 | 0.00 | 81 | 1003.9 |
| 20260506173530 | 15 | 131 | 1.6 | 3.2 | 0.00 | 0.61 | 0.00 | 81 | 1004.0 |
| 20260506173031 | 15 | 126 | 0.0 | 1.6 | 0.00 | 0.61 | 0.00 | 81 | 1003.9 |
| 20260506172533 | 15 | 136 | 0.0 | 1.6 | 0.00 | 0.61 | 0.00 | 80 | 1004.0 |
| 20260506172034 | 15 | 135 | 1.6 | 4.8 | 0.00 | 0.61 | 0.00 | 80 | 1004.0 |
| 20260506171535 | 15 | 151 | 1.6 | 4.8 | 0.00 | 0.61 | 0.00 | 79 | 1004.0 |
| 20260506171037 | 15 | 129 | 1.6 | 3.2 | 0.00 | 0.61 | 0.00 | 79 | 1003.8 |
| 20260506170538 | 15 | 93 | 0.0 | 4.8 | 0.00 | 0.61 | 0.00 | 79 | 1003.8 |
| 20260506170035 | 16 | 131 | 3.2 | 6.4 | 0.05 | 0.61 | 0.00 | 78 | 1004.0 |
| 20260506165532 | 16 | 125 | 1.6 | 4.8 | 0.10 | 0.61 | 0.00 | 78 | 1004.0 |
| 20260506165028 | 16 | 121 | 0.0 | 1.6 | 0.10 | 0.61 | 0.00 | 78 | 1004.1 |
| 20260506164525 | 16 | 117 | 0.0 | 0.0 | 0.10 | 0.61 | 0.00 | 78 | 1004.0 |
| 20260506164022 | 16 | 109 | 1.6 | 3.2 | 0.15 | 0.61 | 0.00 | 78 | 1004.1 |
| 20260506163519 | 16 | 120 | 3.2 | 4.8 | 0.15 | 0.61 | 0.00 | 78 | 1004.2 |
| 20260506163015 | 16 | 156 | 1.6 | 4.8 | 0.15 | 0.61 | 0.00 | 77 | 1004.2 |
| 20260506162512 | 16 | 109 | 0.0 | 1.6 | 0.15 | 0.61 | 0.00 | 76 | 1004.3 |
| 20260506162009 | 16 | 267 | 3.2 | 4.8 | 0.15 | 0.61 | 0.00 | 76 | 1004.4 |
| 20260506161505 | 16 | 222 | 3.2 | 8.0 | 0.15 | 0.61 | 0.00 | 76 | 1004.5 |
| 20260506161002 | 16 | 172 | 3.2 | 4.8 | 0.15 | 0.61 | 0.00 | 75 | 1004.0 |
| 20260506160459 | 16 | 90 | 1.6 | 4.8 | 0.15 | 0.61 | 0.00 | 74 | 1003.7 |
| 20260506155955 | 16 | 113 | 0.0 | 0.0 | 0.10 | 0.56 | 0.00 | 73 | 1004.3 |
| 20260506155451 | 16 | 135 | 0.0 | 0.0 | 0.05 | 0.51 | 0.00 | 73 | 1004.5 |
| 20260506154947 | 16 | 215 | 0.0 | 3.2 | 0.05 | 0.51 | 0.00 | 72 | 1004.6 |
| 20260506154444 | 17 | 247 | 1.6 | 4.8 | 0.05 | 0.51 | 0.00 | 71 | 1004.6 |
| 20260506153951 | 17 | 237 | 1.6 | 4.8 | 0.00 | 0.46 | 0.00 | 70 | 1004.5 |
| 20260506153452 | 18 | 301 | 4.8 | 9.7 | 0.00 | 0.46 | 0.00 | 69 | 1004.4 |
| 20260506152954 | 18 | 310 | 4.8 | 9.7 | 0.00 | 0.46 | 0.00 | 69 | 1004.3 |
| 20260506152455 | 19 | 283 | 1.6 | 6.4 | 0.00 | 0.46 | 0.00 | 68 | 1004.5 |
| 20260506151957 | 20 | 11 | 1.6 | 4.8 | 0.00 | 0.46 | 0.00 | 67 | 1004.5 |
| 20260506151458 | 20 | 73 | 1.6 | 4.8 | 0.00 | 0.46 | 0.00 | 67 | 1004.6 |
| 20260506151000 | 21 | 98 | 1.6 | 8.0 | 0.00 | 0.46 | 0.00 | 67 | 1004.6 |
| 20260506150501 | 21 | 85 | 0.0 | 1.6 | 0.00 | 0.46 | 0.00 | 66 | 1004.5 |
| 20260506150003 | 22 | 109 | 0.0 | 3.2 | 0.00 | 0.46 | 0.00 | 65 | 1004.4 |
| 20260506145504 | 22 | 95 | 1.6 | 4.8 | 0.00 | 0.46 | 0.00 | 65 | 1004.4 |
| 20260506145006 | 23 | 95 | 0.0 | 4.8 | 0.00 | 0.46 | 0.00 | 64 | 1004.5 |
| 20260506144507 | 24 | 141 | 0.0 | 0.0 | 0.00 | 0.46 | 0.00 | 63 | 1004.6 |
| 20260506144008 | 25 | 168 | 0.0 | 3.2 | 0.00 | 0.46 | 0.00 | 62 | 1004.6 |
| 20260506143510 | 26 | 37 | 1.6 | 4.8 | 0.00 | 0.46 | 0.00 | 61 | 1004.6 |
| 20260506143012 | 27 | 39 | 1.6 | 4.8 | 0.00 | 0.46 | 0.00 | 61 | 1004.6 |
| 20260506142513 | 28 | 349 | 1.6 | 4.8 | 0.00 | 0.46 | 0.00 | 60 | 1004.7 |
| 20260506142015 | 28 | 3 | 3.2 | 8.0 | 0.00 | 0.46 | 0.00 | 60 | 1004.8 |
| 20260506141516 | 30 | 299 | 3.2 | 8.0 | 0.00 | 0.46 | 0.00 | 60 | 1004.8 |
| 20260506141017 | 31 | 303 | 1.6 | 4.8 | 0.00 | 0.46 | 0.00 | 59 | 1004.9 |
| 20260506140519 | 31 | 303 | 3.2 | 6.4 | 0.00 | 0.46 | 0.00 | 59 | 1004.9 |
| 20260506140020 | 32 | 346 | 1.6 | 4.8 | 0.00 | 0.46 | 0.00 | 59 | 1004.9 |
| 20260506135522 | 33 | 295 | 1.6 | 3.2 | 0.00 | 0.46 | 0.00 | 58 | 1005.0 |
| 20260506135023 | 35 | 314 | 1.6 | 4.8 | 0.00 | 0.46 | 0.00 | 57 | 1005.0 |
| 20260506134525 | 36 | 332 | 1.6 | 3.2 | 0.00 | 0.46 | 0.00 | 57 | 1005.1 |
| 20260506134026 | 37 | 139 | 1.6 | 6.4 | 0.00 | 0.46 | 0.00 | 56 | 1005.1 |
| 20260506133528 | 38 | 195 | 1.6 | 4.8 | 0.00 | 0.46 | 0.00 | 55 | 1005.2 |
| 20260506133029 | 39 | 43 | 4.8 | 9.7 | 0.00 | 0.46 | 0.00 | 56 | 1005.3 |
| 20260506132530 | 39 | 288 | 1.6 | 4.8 | 0.00 | 0.46 | 0.00 | 58 | 1005.3 |
| 20260506132032 | 39 | 335 | 3.2 | 6.4 | 0.00 | 0.46 | 0.00 | 58 | 1005.4 |
| 20260506131533 | 41 | 230 | 3.2 | 8.0 | 0.00 | 0.46 | 0.00 | 57 | 1005.5 |
| 20260506131035 | 41 | 270 | 4.8 | 14.5 | 0.00 | 0.46 | 0.00 | 58 | 1005.6 |
| 20260506130536 | 41 | 115 | 1.6 | 4.8 | 0.00 | 0.46 | 0.00 | 61 | 1005.7 |
| 20260506130038 | 40 | 181 | 3.2 | 4.8 | 0.00 | 0.46 | 0.00 | 63 | 1005.8 |
| 20260506125539 | 40 | 252 | 3.2 | 11.3 | 0.00 | 0.46 | 0.00 | 65 | 1006.0 |
| 20260506125040 | 40 | 302 | 3.2 | 8.0 | 0.00 | 0.46 | 0.00 | 68 | 1006.0 |
| 20260506124543 | 38 | 283 | 3.2 | 4.8 | 0.00 | 0.46 | 0.00 | 70 | 1006.0 |
| 20260506124043 | 37 | 286 | 3.2 | 4.8 | 0.00 | 0.46 | 0.00 | 71 | 1006.1 |
| 20260506123545 | 37 | 238 | 3.2 | 11.3 | 0.00 | 0.46 | 0.00 | 70 | 1006.2 |
| 20260506123046 | 36 | 250 | 3.2 | 6.4 | 0.00 | 0.46 | 0.00 | 70 | 1006.3 |
| 20260506122547 | 36 | 306 | 4.8 | 8.0 | 0.00 | 0.46 | 0.00 | 70 | 1006.3 |
| 20260506122049 | 35 | 286 | 4.8 | 11.3 | 0.00 | 0.46 | 0.00 | 71 | 1006.4 |
| 20260506121550 | 34 | 151 | 1.6 | 6.4 | 0.00 | 0.46 | 0.00 | 70 | 1006.4 |
| 20260506121052 | 34 | 301 | 4.8 | 9.7 | 0.00 | 0.46 | 0.00 | 68 | 1006.4 |
| 20260506120553 | 35 | 300 | 6.4 | 11.3 | 0.00 | 0.46 | 0.00 | 68 | 1006.5 |
| 20260506120055 | 35 | 107 | 3.2 | 6.4 | 0.00 | 0.46 | 0.00 | 68 | 1006.5 |
| 20260506115556 | 34 | 250 | 3.2 | 6.4 | 0.00 | 0.46 | 0.00 | 68 | 1006.4 |
| 20260506115058 | 34 | 218 | 3.2 | 4.8 | 0.00 | 0.46 | 0.00 | 68 | 1006.5 |
| 20260506114559 | 34 | 261 | 4.8 | 16.1 | 0.00 | 0.46 | 0.00 | 68 | 1006.4 |
| 20260506114101 | 33 | 235 | 4.8 | 12.9 | 0.00 | 0.46 | 0.00 | 67 | 1006.5 |
| 20260506113602 | 33 | 254 | 6.4 | 17.7 | 0.00 | 0.46 | 0.00 | 68 | 1006.6 |
| 20260506113104 | 33 | 309 | 8.0 | 11.3 | 0.00 | 0.46 | 0.00 | 68 | 1006.7 |
| 20260506112605 | 33 | 262 | 6.4 | 16.1 | 0.00 | 0.46 | 0.00 | 69 | 1006.7 |
| 20260506112106 | 33 | 198 | 3.2 | 8.0 | 0.00 | 0.46 | 0.00 | 69 | 1006.8 |
| 20260506111608 | 33 | 296 | 4.8 | 8.0 | 0.00 | 0.46 | 0.00 | 68 | 1006.8 |
| 20260506111109 | 33 | 337 | 6.4 | 14.5 | 0.00 | 0.46 | 0.00 | 69 | 1006.8 |
| 20260506110611 | 32 | 281 | 6.4 | 14.5 | 0.00 | 0.46 | 0.00 | 68 | 1006.9 |
| 20260506110112 | 32 | 239 | 3.2 | 6.4 | 0.00 | 0.46 | 0.00 | 70 | 1006.9 |
| 20260506105614 | 32 | 255 | 3.2 | 11.3 | 0.00 | 0.46 | 0.00 | 70 | 1006.9 |
| 20260506105115 | 31 | 247 | 4.8 | 9.7 | 0.00 | 0.46 | 0.00 | 70 | 1006.9 |
| 20260506104617 | 31 | 280 | 3.2 | 6.4 | 0.00 | 0.46 | 0.00 | 70 | 1007.0 |
| 20260506104118 | 32 | 235 | 4.8 | 14.5 | 0.00 | 0.46 | 0.00 | 69 | 1007.1 |
| 20260506103620 | 32 | 331 | 4.8 | 9.7 | 0.00 | 0.46 | 0.00 | 70 | 1007.1 |
| 20260506103121 | 32 | 273 | 6.4 | 16.1 | 0.00 | 0.46 | 0.00 | 70 | 1007.0 |
| 20260506102622 | 32 | 262 | 4.8 | 9.7 | 0.00 | 0.46 | 0.00 | 70 | 1007.1 |
| 20260506102124 | 32 | 257 | 4.8 | 11.3 | 0.00 | 0.46 | 0.00 | 71 | 1007.0 |
| 20260506101625 | 31 | 273 | 6.4 | 11.3 | 0.00 | 0.46 | 0.00 | 72 | 1007.1 |
| 20260506101127 | 30 | 238 | 6.4 | 16.1 | 0.00 | 0.46 | 0.00 | 73 | 1007.1 |
| 20260506100628 | 30 | 281 | 4.8 | 8.0 | 0.00 | 0.46 | 0.00 | 73 | 1007.0 |
| 20260506100130 | 30 | 275 | 8.0 | 12.9 | 0.00 | 0.46 | 0.00 | 73 | 1007.0 |
| 20260506095631 | 30 | 252 | 4.8 | 11.3 | 0.00 | 0.46 | 0.00 | 74 | 1007.0 |
| 20260506095133 | 28 | 278 | 6.4 | 17.7 | 0.00 | 0.46 | 0.00 | 74 | 1007.0 |
| 20260506094634 | 28 | 244 | 6.4 | 16.1 | 0.00 | 0.46 | 0.00 | 75 | 1007.0 |
| 20260506094136 | 27 | 262 | 8.0 | 11.3 | 0.00 | 0.46 | 0.00 | 76 | 1007.0 |
| 20260506093637 | 26 | 264 | 4.8 | 8.0 | 0.00 | 0.46 | 0.00 | 77 | 1007.0 |
| 20260506093138 | 26 | 328 | 6.4 | 11.3 | 0.00 | 0.46 | 0.00 | 76 | 1006.9 |
| 20260506092640 | 26 | 280 | 4.8 | 9.7 | 0.00 | 0.46 | 0.00 | 76 | 1006.9 |
| 20260506092141 | 26 | 279 | 6.4 | 14.5 | 0.00 | 0.46 | 0.00 | 76 | 1006.9 |
| 20260506091643 | 26 | 226 | 6.4 | 9.7 | 0.00 | 0.46 | 0.00 | 77 | 1006.9 |
| 20260506091144 | 26 | 251 | 8.0 | 14.5 | 0.00 | 0.46 | 0.00 | 76 | 1006.9 |
| 20260506090646 | 25 | 270 | 6.4 | 11.3 | 0.00 | 0.46 | 0.00 | 77 | 1006.9 |
| 20260506090147 | 25 | 274 | 9.7 | 20.9 | 0.00 | 0.46 | 0.00 | 78 | 1006.9 |
| 20260506085649 | 24 | 257 | 6.4 | 12.9 | 0.00 | 0.46 | 0.00 | 79 | 1006.9 |
| 20260506085150 | 23 | 265 | 8.0 | 16.1 | 0.00 | 0.46 | 0.00 | 80 | 1006.9 |
| 20260506084652 | 23 | 254 | 6.4 | 12.9 | 0.00 | 0.46 | 0.00 | 80 | 1006.8 |
| 20260506084153 | 23 | 264 | 8.0 | 14.5 | 0.00 | 0.46 | 0.00 | 80 | 1006.9 |
| 20260506083655 | 23 | 252 | 6.4 | 14.5 | 0.00 | 0.46 | 0.00 | 81 | 1006.8 |
| 20260506083156 | 22 | 287 | 6.4 | 9.7 | 0.00 | 0.46 | 0.00 | 82 | 1006.8 |
| 20260506082657 | 21 | 257 | 8.0 | 14.5 | 0.00 | 0.46 | 0.00 | 84 | 1006.8 |
| 20260506082159 | 21 | 292 | 4.8 | 8.0 | 0.00 | 0.46 | 0.00 | 84 | 1006.8 |
| 20260506081700 | 20 | 296 | 6.4 | 11.3 | 0.00 | 0.46 | 0.00 | 83 | 1006.8 |
| 20260506081202 | 21 | 320 | 6.4 | 12.9 | 0.00 | 0.46 | 0.00 | 83 | 1006.9 |